STARLINK-34756, 64849

Orbit data source: Space-Track

STARLINK-34756, 64849 is a payload satellite owned by SpaceX/Seattle (US) in SSO that was launched on Sat, 19 Jul 2025 UTC via an FALCON 9 launch vehicle from the Air Force Western Test Range (AFWTR). Payload-class satellites include a variety of spacecraft equipped with specific instruments for various scientific and technological missions. These include communications satellites like Starlink; space stations such as the ISS; scientific satellites like the Hubble; Earth observation satellites from companies like Planet Labs, Umbra, and HawkEye 360; GPS; miniature CubeSats for education and research; and military/defense satellites.

Loading next visibility...
Identifier
64849, 2025-152H
Orbit
SSO
Country
Flag of USUS
Related business
Manufacturer
SpaceX/Seattle
Mission
Operational Commercial Communications
Bus & Motor
STARLINK V2MO, Unknown motor
Mass
575 kg wet, ~530 kg dry
Launch date (UTC)
2025-07-19 (9 months ago)
Launch vehicle
FALCON 9
Launch site
Air Force Western Test Range (AFWTR)
Object type
Payload
Rocket body
Debris
Shape & HBR
Box + 2 Pan, 17.7 m
Radar Cross Section
36.964 m², Large (>1 m²)

Expand to show TLE details & history
Last TLE update: 19 hours ago

TLE from 19 hours ago
0 STARLINK-34756
1 64849U 25152H   26094.58089259  .00002201  00000-0  15670-3 0  9990
2 64849  97.6013 311.0510 0001926  89.0941 271.0506 15.05647496 39313
Epoch: 2026-04-04T13:56Z
TLE epoch observation values (Epoch: 2026-04-04T13:56:29.119Z)
Latitude
-0.00009°
Longitude
-90.96894°
Altitude
552.56 km
Speed
7.586 km/s
True Right ascension
20h 44m 12s
True Declination
0° 00' 00"
Sunlit
Object was in daylight at epoch
Visualization orbit readout
Latitude
Unknown
Longitude
Unknown
Altitude
Unknown
Speed
Unknown
Apparent Right ascension
Unknown
Apparent Declination
Unknown
Sunlit
N/A
Visualization observer readout
Local Sidereal Time
14:33:00
Azimuth
Unknown
Elevation
Unknown
Doppler factor
Unknown
Orbital elements
Apogee altitude
547.846 km
Perigee altitude
545.179 km
Semi-major axis
6,924.649 km
Eccentricity
0.00019
Inclination
97.6013°
RAAN
311.051°
Arg. of periapsis
89.0941°
True anomaly
271.02853°
Mean anomaly
271.0506°
Eccentric anomaly
271.03957°
Mean motion
3.76657 °/min
Orbital period
95.58 mins
BSTAR
0.0001567
Loading maneuver chart data...
Computing Atmospheric mass density...
Loading historical data...
Loading historical data...
Loading historical data...
Loading historical data...
Loading historical data...
Loading historical data...
Loading historical data...

Documentation

Showing up to 5 results
|